| time (UTC) | temp C | wind direction | speed KPH | gust KPH | rain 1hr cm | rain 24hr cm | rain mn cm | humidity % | barometer mb |
| 20260508033716 | 20 | 21 | 0.0 | 3.2 | 0.00 | 0.00 | 0.00 | 81 | 999.4 |
| 20260508033216 | 20 | 48 | 1.6 | 3.2 | 0.00 | 0.00 | 0.00 | 80 | 999.2 |
| 20260508032713 | 20 | 48 | 0.0 | 3.2 | 0.00 | 0.00 | 0.00 | 80 | 999.2 |
| 20260508032213 | 20 | 302 | 0.0 | 3.2 | 0.00 | 0.00 | 0.00 | 81 | 999.6 |
| 20260508031712 | 20 | 344 | 0.0 | 1.6 | 0.00 | 0.00 | 0.00 | 81 | 999.4 |
| 20260508031212 | 20 | 0 | 0.0 | 1.6 | 0.00 | 0.00 | 0.00 | 81 | 999.4 |
| 20260508031151 | 20 | 0 | 0.0 | 3.2 | 0.00 | 0.00 | 0.00 | 81 | 999.5 |
| 20260508030204 | 20 | 0 | 0.0 | 3.2 | 0.00 | 0.00 | 0.00 | 81 | 999.4 |
| 20260508025704 | 20 | 0 | 0.0 | 1.6 | 0.00 | 0.00 | 0.00 | 81 | 999.5 |
| 20260508025201 | 20 | 0 | 0.0 | 1.6 | 0.00 | 0.00 | 0.00 | 82 | 999.4 |
| 20260508024659 | 20 | 0 | 0.0 | 1.6 | 0.00 | 0.00 | 0.00 | 82 | 999.7 |
| 20260508024156 | 20 | 0 | 0.0 | 1.6 | 0.00 | 0.00 | 0.00 | 82 | 999.8 |
| 20260508023656 | 21 | 0 | 0.0 | 3.2 | 0.00 | 0.00 | 0.00 | 82 | 999.9 |
| 20260508023155 | 21 | 0 | 0.0 | 4.8 | 0.00 | 0.00 | 0.00 | 82 | 999.9 |
| 20260508022652 | 21 | 0 | 0.0 | 4.8 | 0.00 | 0.00 | 0.00 | 83 | 999.9 |
| 20260508022151 | 21 | 0 | 0.0 | 0.0 | 0.00 | 0.00 | 0.00 | 83 | 999.6 |
| 20260508021650 | 21 | 0 | 0.0 | 0.0 | 0.00 | 0.00 | 0.00 | 83 | 999.6 |
| 20260508021144 | 21 | 0 | 0.0 | 0.0 | 0.00 | 0.00 | 0.00 | 83 | 999.7 |
| 20260508020643 | 21 | 0 | 0.0 | 0.0 | 0.00 | 0.00 | 0.00 | 82 | 999.7 |
| 20260508020142 | 21 | 0 | 0.0 | 0.0 | 0.00 | 0.00 | 0.00 | 82 | 999.6 |
| 20260508015642 | 21 | 0 | 0.0 | 0.0 | 0.00 | 0.00 | 0.00 | 82 | 999.7 |
| 20260508015138 | 21 | 0 | 0.0 | 0.0 | 0.00 | 0.00 | 0.00 | 82 | 999.7 |
| 20260508014638 | 21 | 0 | 0.0 | 0.0 | 0.00 | 0.00 | 0.00 | 81 | 999.8 |
| 20260508014136 | 21 | 0 | 0.0 | 0.0 | 0.00 | 0.00 | 0.00 | 81 | 999.6 |
| 20260508013634 | 21 | 0 | 0.0 | 0.0 | 0.00 | 0.00 | 0.00 | 81 | 999.7 |
| 20260508013355 | 21 | 0 | 0.0 | 0.0 | 0.00 | 0.00 | 0.00 | 81 | 999.8 |
| 20260508012855 | 22 | 0 | 0.0 | 0.0 | 0.00 | 0.00 | 0.00 | 80 | 999.5 |
| 20260508012134 | 22 | 0 | 0.0 | 0.0 | 0.00 | 0.00 | 0.00 | 79 | 999.5 |
| 20260508011853 | 22 | 0 | 0.0 | 0.0 | 0.00 | 0.00 | 0.00 | 79 | 999.5 |
| 20260508011135 | 22 | 0 | 0.0 | 0.0 | 0.00 | 0.00 | 0.00 | 79 | 999.6 |
| 20260508010858 | 22 | 0 | 0.0 | 0.0 | 0.00 | 0.00 | 0.00 | 79 | 999.6 |
| 20260508010130 | 22 | 0 | 0.0 | 0.0 | 0.00 | 0.00 | 0.00 | 78 | 999.4 |
| 20260508005630 | 22 | 0 | 0.0 | 0.0 | 0.00 | 0.00 | 0.00 | 79 | 999.4 |
| 20260508005130 | 22 | 0 | 0.0 | 0.0 | 0.00 | 0.00 | 0.00 | 79 | 999.4 |
| 20260508004630 | 22 | 0 | 0.0 | 0.0 | 0.00 | 0.00 | 0.00 | 78 | 999.3 |
| 20260508004348 | 22 | 0 | 0.0 | 0.0 | 0.00 | 0.00 | 0.00 | 78 | 999.3 |
| 20260508003622 | 22 | 0 | 0.0 | 0.0 | 0.00 | 0.00 | 0.00 | 78 | 999.1 |
| 20260508003122 | 23 | 0 | 0.0 | 0.0 | 0.00 | 0.00 | 0.00 | 78 | 998.8 |
| 20260508002841 | 23 | 0 | 0.0 | 1.6 | 0.00 | 0.00 | 0.00 | 78 | 999.2 |
| 20260508002122 | 23 | 0 | 0.0 | 1.6 | 0.00 | 0.00 | 0.00 | 78 | 999.4 |
| 20260508001623 | 23 | 0 | 0.0 | 1.6 | 0.00 | 0.00 | 0.00 | 77 | 999.5 |
| 20260508001123 | 23 | 0 | 0.0 | 1.6 | 0.00 | 0.00 | 0.00 | 77 | 999.5 |
| 20260508000622 | 23 | 0 | 0.0 | 3.2 | 0.00 | 0.00 | 0.00 | 76 | 999.6 |
| 20260508000123 | 23 | 334 | 0.0 | 3.2 | 0.00 | 0.00 | 0.00 | 76 | 999.7 |
| 20260507235623 | 23 | 0 | 0.0 | 3.2 | 0.00 | 0.00 | 0.00 | 76 | 999.6 |
| 20260507235122 | 23 | 0 | 0.0 | 4.8 | 0.00 | 0.00 | 0.00 | 75 | 999.5 |
| 20260507234841 | 23 | 0 | 0.0 | 4.8 | 0.00 | 0.00 | 0.00 | 75 | 999.7 |
| 20260507234122 | 23 | 0 | 1.6 | 3.2 | 0.00 | 0.00 | 0.00 | 75 | 999.6 |
| 20260507233622 | 23 | 0 | 1.6 | 3.2 | 0.00 | 0.00 | 0.00 | 75 | 999.8 |
| 20260507233122 | 24 | 0 | 1.6 | 4.8 | 0.00 | 0.00 | 0.00 | 75 | 999.7 |
| 20260507232625 | 24 | 0 | 1.6 | 4.8 | 0.00 | 0.00 | 0.00 | 75 | 999.6 |
| 20260507232123 | 24 | 0 | 1.6 | 3.2 | 0.00 | 0.00 | 0.00 | 76 | 999.6 |
| 20260507231622 | 24 | 0 | 1.6 | 4.8 | 0.00 | 0.00 | 0.00 | 76 | 999.5 |
| 20260507231122 | 24 | 0 | 1.6 | 4.8 | 0.00 | 0.00 | 0.00 | 75 | 999.4 |
| 20260507230622 | 24 | 0 | 0.0 | 4.8 | 0.00 | 0.00 | 0.00 | 75 | 999.4 |
| 20260507230122 | 24 | 313 | 0.0 | 3.2 | 0.00 | 0.00 | 0.00 | 75 | 999.4 |
| 20260507225622 | 24 | 313 | 1.6 | 4.8 | 0.00 | 0.00 | 0.00 | 75 | 999.5 |
| 20260507225344 | 24 | 313 | 1.6 | 8.0 | 0.00 | 0.00 | 0.00 | 75 | 999.4 |
| 20260507224622 | 24 | 0 | 0.0 | 8.0 | 0.00 | 0.00 | 0.00 | 77 | 999.2 |
| 20260507224122 | 24 | 0 | 0.0 | 3.2 | 0.00 | 0.00 | 0.00 | 76 | 999.1 |
| 20260507223622 | 24 | 0 | 1.6 | 3.2 | 0.00 | 0.00 | 0.00 | 76 | 999.1 |
| 20260507223339 | 24 | 0 | 1.6 | 8.0 | 0.00 | 0.00 | 0.00 | 75 | 998.9 |
| 20260507222618 | 24 | 0 | 1.6 | 8.0 | 0.00 | 0.00 | 0.00 | 74 | 999.0 |
| 20260507222118 | 24 | 0 | 1.6 | 3.2 | 0.00 | 0.00 | 0.00 | 75 | 999.0 |
| 20260507221618 | 24 | 0 | 1.6 | 3.2 | 0.00 | 0.00 | 0.00 | 77 | 999.1 |
| 20260507221118 | 24 | 0 | 0.0 | 3.2 | 0.00 | 0.00 | 0.00 | 76 | 999.0 |
| 20260507220847 | 24 | 0 | 1.6 | 1.6 | 0.00 | 0.00 | 0.00 | 77 | 999.1 |
| 20260507220119 | 24 | 0 | 0.0 | 3.2 | 0.00 | 0.00 | 0.00 | 76 | 999.3 |
| 20260507215618 | 24 | 342 | 1.6 | 3.2 | 0.00 | 0.00 | 0.00 | 76 | 999.4 |
| 20260507215340 | 24 | 0 | 1.6 | 3.2 | 0.00 | 0.00 | 0.00 | 75 | 999.4 |
| 20260507214839 | 24 | 341 | 1.6 | 6.4 | 0.00 | 0.00 | 0.00 | 75 | 999.4 |
| 20260507214114 | 24 | 0 | 1.6 | 6.4 | 0.00 | 0.00 | 0.00 | 75 | 999.3 |
| 20260507213841 | 24 | 0 | 1.6 | 6.4 | 0.00 | 0.00 | 0.00 | 75 | 999.4 |
| 20260507213115 | 24 | 0 | 1.6 | 6.4 | 0.00 | 0.00 | 0.00 | 75 | 999.4 |
| 20260507212614 | 24 | 0 | 1.6 | 4.8 | 0.00 | 0.00 | 0.00 | 76 | 999.4 |
| 20260507212114 | 24 | 0 | 1.6 | 4.8 | 0.00 | 0.00 | 0.00 | 76 | 999.3 |
| 20260507211614 | 25 | 0 | 1.6 | 4.8 | 0.00 | 0.00 | 0.00 | 75 | 999.4 |
| 20260507211113 | 25 | 0 | 1.6 | 4.8 | 0.00 | 0.00 | 0.00 | 75 | 999.5 |
| 20260507210614 | 25 | 0 | 1.6 | 4.8 | 0.00 | 0.00 | 0.00 | 75 | 999.6 |
| 20260507210114 | 25 | 0 | 1.6 | 6.4 | 0.00 | 0.00 | 0.00 | 75 | 999.8 |
| 20260507205828 | 25 | 0 | 1.6 | 6.4 | 0.00 | 0.00 | 0.00 | 74 | 999.7 |
| 20260507205058 | 25 | 0 | 1.6 | 8.0 | 0.00 | 0.00 | 0.00 | 77 | 999.8 |
| 20260507204559 | 25 | 0 | 1.6 | 8.0 | 0.00 | 0.00 | 0.00 | 76 | 999.8 |
| 20260507204321 | 25 | 0 | 1.6 | 4.8 | 0.00 | 0.00 | 0.00 | 76 | 999.7 |
| 20260507203558 | 25 | 0 | 1.6 | 3.2 | 0.00 | 0.00 | 0.00 | 76 | 999.9 |
| 20260507203057 | 25 | 0 | 1.6 | 6.4 | 0.00 | 0.00 | 0.00 | 75 | 999.9 |
| 20260507202558 | 25 | 0 | 3.2 | 6.4 | 0.00 | 0.00 | 0.00 | 75 | 1000.0 |
| 20260507202059 | 25 | 0 | 3.2 | 6.4 | 0.00 | 0.00 | 0.00 | 75 | 1000.0 |
| 20260507201554 | 24 | 0 | 1.6 | 9.7 | 0.00 | 0.00 | 0.00 | 76 | 1000.1 |
| 20260507201054 | 24 | 0 | 1.6 | 9.7 | 0.00 | 0.00 | 0.00 | 76 | 1000.1 |
| 20260507200550 | 24 | 0 | 1.6 | 4.8 | 0.00 | 0.00 | 0.00 | 77 | 1000.1 |
| 20260507200049 | 24 | 0 | 1.6 | 9.7 | 0.00 | 0.00 | 0.00 | 76 | 1000.1 |
| 20260507195549 | 24 | 0 | 1.6 | 9.7 | 0.00 | 0.00 | 0.00 | 75 | 1000.2 |
| 20260507195050 | 24 | 0 | 3.2 | 6.4 | 0.00 | 0.00 | 0.00 | 76 | 1000.4 |
| 20260507194816 | 24 | 23 | 3.2 | 6.4 | 0.00 | 0.00 | 0.00 | 75 | 1000.7 |
| 20260507194049 | 24 | 313 | 3.2 | 8.0 | 0.00 | 0.00 | 0.00 | 76 | 1000.8 |
| 20260507193550 | 24 | 10 | 1.6 | 8.0 | 0.00 | 0.00 | 0.00 | 76 | 1000.4 |
| 20260507193049 | 24 | 319 | 1.6 | 6.4 | 0.00 | 0.00 | 0.00 | 76 | 1000.4 |
| 20260507192548 | 24 | 134 | 3.2 | 8.0 | 0.00 | 0.00 | 0.00 | 76 | 1000.4 |
| 20260507192045 | 24 | 331 | 1.6 | 8.0 | 0.00 | 0.00 | 0.00 | 78 | 1000.5 |
| 20260507191807 | 24 | 327 | 1.6 | 12.9 | 0.00 | 0.00 | 0.00 | 77 | 1000.6 |
| 20260507191040 | 23 | 344 | 1.6 | 12.9 | 0.00 | 0.00 | 0.00 | 78 | 1001.0 |
| 20260507190540 | 23 | 312 | 1.6 | 6.4 | 0.00 | 0.00 | 0.00 | 79 | 1001.1 |
| 20260507190040 | 23 | 51 | 1.6 | 3.2 | 0.00 | 0.00 | 0.00 | 79 | 1001.3 |
| 20260507185803 | 23 | 314 | 1.6 | 8.0 | 0.00 | 0.00 | 0.00 | 79 | 1001.4 |
| 20260507185037 | 22 | 338 | 1.6 | 8.0 | 0.00 | 0.00 | 0.00 | 79 | 1001.4 |
| 20260507184754 | 22 | 321 | 3.2 | 6.4 | 0.00 | 0.00 | 0.00 | 79 | 1001.4 |
| 20260507184035 | 22 | 22 | 3.2 | 8.0 | 0.00 | 0.00 | 0.00 | 79 | 1001.3 |
| 20260507183758 | 22 | 30 | 3.2 | 8.0 | 0.00 | 0.00 | 0.00 | 80 | 1001.5 |
| 20260507183035 | 22 | 349 | 3.2 | 16.1 | 0.00 | 0.00 | 0.00 | 80 | 1001.5 |
| 20260507182531 | 22 | 315 | 3.2 | 16.1 | 0.00 | 0.00 | 0.00 | 79 | 1001.5 |
| 20260507182030 | 22 | 49 | 1.6 | 8.0 | 0.00 | 0.00 | 0.00 | 80 | 1001.5 |
| 20260507181530 | 22 | 288 | 3.2 | 8.0 | 0.00 | 0.00 | 0.00 | 82 | 1001.6 |
| 20260507181248 | 22 | 30 | 1.6 | 8.0 | 0.00 | 0.00 | 0.00 | 81 | 1001.6 |
| 20260507180527 | 21 | 44 | 1.6 | 6.4 | 0.00 | 0.00 | 0.00 | 81 | 1001.8 |
| 20260507180245 | 21 | 0 | 1.6 | 6.4 | 0.00 | 0.00 | 0.00 | 81 | 1001.9 |
| 20260507175523 | 21 | 53 | 1.6 | 4.8 | 0.00 | 0.00 | 0.00 | 82 | 1002.0 |
| 20260507175024 | 21 | 82 | 1.6 | 4.8 | 0.00 | 0.00 | 0.00 | 83 | 1001.9 |
| 20260507174524 | 21 | 336 | 1.6 | 4.8 | 0.00 | 0.00 | 0.00 | 82 | 1002.0 |
| 20260507174021 | 21 | 349 | 1.6 | 4.8 | 0.00 | 0.00 | 0.00 | 83 | 1002.2 |
| 20260507173522 | 20 | 349 | 1.6 | 4.8 | 0.00 | 0.00 | 0.00 | 83 | 1002.5 |
| 20260507173242 | 20 | 349 | 1.6 | 6.4 | 0.00 | 0.00 | 0.00 | 82 | 1002.5 |
| 20260507172518 | 20 | 38 | 1.6 | 6.4 | 0.00 | 0.00 | 0.00 | 82 | 1002.5 |
| 20260507172016 | 21 | 345 | 1.6 | 4.8 | 0.00 | 0.00 | 0.00 | 83 | 1002.5 |
| 20260507171517 | 20 | 306 | 3.2 | 8.0 | 0.00 | 0.00 | 0.00 | 83 | 1002.6 |
| 20260507171015 | 20 | 349 | 1.6 | 8.0 | 0.00 | 0.00 | 0.00 | 82 | 1002.5 |
| 20260507170511 | 20 | 335 | 1.6 | 6.4 | 0.00 | 0.00 | 0.00 | 84 | 1002.3 |
| 20260507170012 | 20 | 295 | 3.2 | 6.4 | 0.00 | 0.00 | 0.00 | 83 | 1002.2 |
| 20260507165507 | 20 | 331 | 1.6 | 6.4 | 0.00 | 0.00 | 0.00 | 83 | 1002.4 |
| 20260507165007 | 20 | 9 | 1.6 | 6.4 | 0.00 | 0.00 | 0.00 | 84 | 1002.3 |
| 20260507164507 | 20 | 14 | 1.6 | 6.4 | 0.00 | 0.00 | 0.00 | 85 | 1002.3 |
| 20260507164003 | 20 | 315 | 1.6 | 4.8 | 0.00 | 0.00 | 0.00 | 85 | 1002.2 |
| 20260507163501 | 20 | 336 | 1.6 | 4.8 | 0.00 | 0.00 | 0.00 | 85 | 1002.1 |
| 20260507163001 | 19 | 44 | 1.6 | 6.4 | 0.00 | 0.00 | 0.00 | 85 | 1002.0 |
| 20260507162946 | 19 | 329 | 3.2 | 6.4 | 0.00 | 0.00 | 0.00 | 85 | 1001.9 |
| 20260507162219 | 19 | 30 | 3.2 | 8.0 | 0.00 | 0.00 | 0.00 | 84 | 1001.8 |
| 20260507161459 | 19 | 292 | 1.6 | 8.0 | 0.00 | 0.00 | 0.00 | 85 | 1001.9 |
| 20260507160959 | 18 | 60 | 1.6 | 4.8 | 0.00 | 0.00 | 0.00 | 86 | 1001.9 |
| 20260507160501 | 18 | 56 | 1.6 | 6.4 | 0.00 | 0.00 | 0.00 | 86 | 1001.8 |
| 20260507155959 | 18 | 10 | 1.6 | 6.4 | 0.00 | 0.00 | 0.00 | 87 | 1001.8 |
| 20260507155456 | 18 | 154 | 1.6 | 8.0 | 0.00 | 0.00 | 0.00 | 87 | 1001.7 |
| 20260507154957 | 18 | 53 | 1.6 | 8.0 | 0.00 | 0.00 | 0.00 | 87 | 1001.5 |
| 20260507154723 | 18 | 57 | 1.6 | 6.4 | 0.00 | 0.00 | 0.00 | 87 | 1001.6 |
| 20260507154213 | 17 | 350 | 3.2 | 6.4 | 0.00 | 0.00 | 0.00 | 87 | 1001.9 |
| 20260507153456 | 17 | 0 | 3.2 | 9.7 | 0.00 | 0.00 | 0.00 | 87 | 1002.0 |
| 20260507153444 | 17 | 0 | 3.2 | 9.7 | 0.00 | 0.00 | 0.00 | 87 | 1002.1 |
| 20260507152455 | 17 | 0 | 3.2 | 8.0 | 0.00 | 0.00 | 0.00 | 87 | 1002.2 |
| 20260507151955 | 17 | 0 | 3.2 | 6.4 | 0.00 | 0.00 | 0.00 | 87 | 1002.1 |
| 20260507151718 | 17 | 0 | 3.2 | 12.9 | 0.00 | 0.00 | 0.00 | 88 | 1002.0 |
| 20260507151212 | 17 | 0 | 3.2 | 12.9 | 0.00 | 0.00 | 0.00 | 87 | 1002.0 |
| 20260507150455 | 17 | 0 | 3.2 | 6.4 | 0.00 | 0.00 | 0.00 | 88 | 1001.7 |
| 20260507145956 | 17 | 0 | 3.2 | 8.0 | 0.00 | 0.00 | 0.00 | 88 | 1001.6 |
| 20260507145455 | 17 | 0 | 3.2 | 8.0 | 0.00 | 0.00 | 0.00 | 87 | 1001.8 |
| 20260507144955 | 17 | 0 | 3.2 | 6.4 | 0.00 | 0.00 | 0.00 | 88 | 1002.0 |
| 20260507144727 | 17 | 0 | 3.2 | 8.0 | 0.00 | 0.00 | 0.00 | 88 | 1002.0 |
| 20260507143955 | 17 | 0 | 3.2 | 14.5 | 0.00 | 0.00 | 0.00 | 89 | 1001.9 |
| 20260507143455 | 17 | 0 | 3.2 | 14.5 | 0.00 | 0.00 | 0.00 | 90 | 1001.9 |
| 20260507142956 | 17 | 0 | 3.2 | 6.4 | 0.00 | 0.00 | 0.00 | 90 | 1002.0 |
| 20260507142720 | 17 | 0 | 3.2 | 6.4 | 0.00 | 0.00 | 0.00 | 89 | 1002.0 |
| 20260507141955 | 17 | 0 | 3.2 | 8.0 | 0.00 | 0.00 | 0.00 | 90 | 1001.9 |
| 20260507141455 | 17 | 0 | 3.2 | 16.1 | 0.00 | 0.00 | 0.00 | 91 | 1001.9 |
| 20260507141216 | 17 | 0 | 3.2 | 16.1 | 0.00 | 0.00 | 0.00 | 90 | 1002.0 |
| 20260507140455 | 17 | 0 | 3.2 | 6.4 | 0.00 | 0.00 | 0.00 | 90 | 1002.0 |
| 20260507140438 | 17 | 0 | 3.2 | 8.0 | 0.00 | 0.00 | 0.00 | 91 | 1002.0 |
| 20260507135456 | 17 | 0 | 1.6 | 8.0 | 0.00 | 0.00 | 0.00 | 91 | 1002.0 |
| 20260507135216 | 17 | 0 | 1.6 | 6.4 | 0.00 | 0.00 | 0.00 | 90 | 1002.1 |
| 20260507134452 | 17 | 0 | 0.0 | 3.2 | 0.00 | 0.00 | 0.00 | 91 | 1002.2 |
| 20260507133952 | 17 | 0 | 0.0 | 6.4 | 0.00 | 0.00 | 0.00 | 91 | 1002.2 |
| 20260507133451 | 17 | 0 | 1.6 | 6.4 | 0.00 | 0.00 | 0.00 | 91 | 1002.2 |
| 20260507133217 | 17 | 0 | 1.6 | 6.4 | 0.00 | 0.00 | 0.00 | 90 | 1002.0 |
| 20260507132451 | 17 | 20 | 1.6 | 6.4 | 0.00 | 0.00 | 0.00 | 90 | 1002.0 |
| 20260507131952 | 17 | 344 | 0.0 | 3.2 | 0.00 | 0.00 | 0.00 | 90 | 1002.0 |
| 20260507131928 | 17 | 27 | 1.6 | 3.2 | 0.00 | 0.00 | 0.00 | 90 | 1002.1 |
| 20260507130951 | 17 | 342 | 1.6 | 9.7 | 0.00 | 0.00 | 0.00 | 90 | 1002.2 |
| 20260507130451 | 17 | 11 | 1.6 | 9.7 | 0.00 | 0.00 | 0.00 | 90 | 1002.3 |
| 20260507130207 | 17 | 17 | 1.6 | 4.8 | 0.00 | 0.00 | 0.00 | 90 | 1002.0 |
| 20260507125708 | 17 | 292 | 1.6 | 4.8 | 0.00 | 0.00 | 0.00 | 90 | 1002.2 |
| 20260507124948 | 17 | 309 | 1.6 | 4.8 | 0.00 | 0.00 | 0.00 | 90 | 1002.3 |
| 20260507124447 | 17 | 0 | 1.6 | 6.4 | 0.00 | 0.00 | 0.00 | 90 | 1002.1 |
| 20260507123946 | 17 | 11 | 1.6 | 6.4 | 0.00 | 0.00 | 0.00 | 90 | 1002.2 |
| 20260507123709 | 17 | 0 | 0.0 | 1.6 | 0.00 | 0.00 | 0.00 | 90 | 1002.0 |
| 20260507122946 | 17 | 0 | 0.0 | 1.6 | 0.00 | 0.00 | 0.00 | 90 | 1001.8 |
| 20260507122447 | 17 | 35 | 0.0 | 3.2 | 0.00 | 0.00 | 0.00 | 90 | 1001.5 |
| 20260507121948 | 17 | 31 | 1.6 | 9.7 | 0.00 | 0.00 | 0.00 | 90 | 1001.1 |
| 20260507121443 | 17 | 313 | 1.6 | 9.7 | 0.00 | 0.00 | 0.00 | 90 | 1000.8 |
| 20260507120943 | 17 | 14 | 1.6 | 8.0 | 0.00 | 0.00 | 0.00 | 90 | 1000.7 |
| 20260507120444 | 17 | 350 | 1.6 | 8.0 | 0.00 | 0.00 | 0.00 | 90 | 1001.0 |
| 20260507115944 | 17 | 350 | 1.6 | 4.8 | 0.00 | 0.00 | 0.00 | 90 | 1000.7 |
| 20260507115444 | 17 | 348 | 1.6 | 6.4 | 0.00 | 0.00 | 0.00 | 90 | 1000.5 |
| 20260507114943 | 17 | 17 | 1.6 | 6.4 | 0.00 | 0.00 | 0.00 | 90 | 1000.5 |
| 20260507114443 | 17 | 5 | 0.0 | 4.8 | 0.00 | 0.00 | 0.00 | 90 | 1000.8 |
| 20260507113943 | 17 | 5 | 0.0 | 4.8 | 0.00 | 0.00 | 0.00 | 90 | 1000.6 |
| 20260507113444 | 17 | 26 | 0.0 | 0.0 | 0.00 | 0.00 | 0.00 | 90 | 1000.6 |
| 20260507112939 | 17 | 26 | 0.0 | 3.2 | 0.00 | 0.00 | 0.00 | 90 | 1000.7 |
| 20260507112439 | 17 | 345 | 1.6 | 6.4 | 0.00 | 0.00 | 0.00 | 90 | 1000.4 |
| 20260507111938 | 17 | 14 | 1.6 | 8.0 | 0.00 | 0.00 | 0.00 | 90 | 1000.2 |
| 20260507111439 | 17 | 345 | 1.6 | 8.0 | 0.00 | 0.00 | 0.00 | 90 | 1000.6 |
| 20260507111200 | 17 | 347 | 1.6 | 4.8 | 0.00 | 0.00 | 0.00 | 90 | 1000.2 |
| 20260507110440 | 17 | 303 | 1.6 | 4.8 | 0.00 | 0.00 | 0.00 | 90 | 1000.3 |
| 20260507110156 | 17 | 350 | 1.6 | 4.8 | 0.00 | 0.00 | 0.00 | 90 | 1000.2 |
| 20260507105441 | 18 | 9 | 1.6 | 6.4 | 0.00 | 0.00 | 0.00 | 90 | 1000.1 |
| 20260507104940 | 18 | 14 | 1.6 | 6.4 | 0.00 | 0.00 | 0.00 | 90 | 1000.0 |
| 20260507104435 | 18 | 327 | 1.6 | 4.8 | 0.00 | 0.00 | 0.00 | 90 | 999.6 |
| 20260507103926 | 18 | 5 | 1.6 | 4.8 | 0.00 | 0.00 | 0.00 | 90 | 999.8 |
| 20260507103427 | 18 | 301 | 0.0 | 3.2 | 0.00 | 0.00 | 0.00 | 90 | 1000.0 |
| 20260507102929 | 18 | 345 | 0.0 | 3.2 | 0.00 | 0.00 | 0.00 | 90 | 999.9 |
| 20260507102428 | 18 | 290 | 1.6 | 3.2 | 0.00 | 0.00 | 0.00 | 91 | 999.8 |
| 20260507101928 | 18 | 350 | 1.6 | 3.2 | 0.00 | 0.00 | 0.00 | 91 | 999.5 |
| 20260507101428 | 18 | 327 | 0.0 | 3.2 | 0.00 | 0.00 | 0.00 | 91 | 999.6 |
| 20260507100928 | 18 | 253 | 0.0 | 1.6 | 0.00 | 0.00 | 0.00 | 91 | 999.5 |
| 20260507100429 | 18 | 253 | 1.6 | 3.2 | 0.00 | 0.00 | 0.00 | 91 | 999.5 |
| 20260507095927 | 18 | 294 | 1.6 | 4.8 | 0.00 | 0.00 | 0.00 | 91 | 999.1 |
| 20260507095424 | 18 | 349 | 1.6 | 6.4 | 0.00 | 0.00 | 0.00 | 91 | 999.4 |
| 20260507094925 | 18 | 310 | 1.6 | 6.4 | 0.00 | 0.00 | 0.00 | 91 | 999.0 |
| 20260507094423 | 18 | 350 | 1.6 | 8.0 | 0.00 | 0.00 | 0.00 | 91 | 999.4 |
| 20260507093924 | 18 | 278 | 1.6 | 8.0 | 0.00 | 0.00 | 0.00 | 91 | 998.9 |
| 20260507093422 | 18 | 46 | 0.0 | 3.2 | 0.00 | 0.00 | 0.00 | 91 | 998.7 |
| 20260507092921 | 18 | 54 | 0.0 | 4.8 | 0.00 | 0.00 | 0.00 | 91 | 998.9 |
| 20260507092421 | 18 | 163 | 1.6 | 4.8 | 0.00 | 0.00 | 0.00 | 91 | 999.0 |
| 20260507091920 | 18 | 5 | 1.6 | 4.8 | 0.00 | 0.00 | 0.00 | 91 | 998.8 |
| 20260507091421 | 18 | 328 | 1.6 | 6.4 | 0.00 | 0.00 | 0.00 | 91 | 999.0 |
| 20260507090918 | 18 | 311 | 1.6 | 6.4 | 0.00 | 0.00 | 0.00 | 91 | 999.0 |
| 20260507090418 | 18 | 329 | 1.6 | 4.8 | 0.00 | 0.00 | 0.00 | 91 | 998.9 |
| 20260507085920 | 18 | 15 | 1.6 | 4.8 | 0.00 | 0.00 | 0.00 | 91 | 998.9 |
| 20260507085420 | 18 | 345 | 1.6 | 6.4 | 0.00 | 0.00 | 0.00 | 91 | 999.1 |
| 20260507084918 | 18 | 5 | 0.0 | 6.4 | 0.00 | 0.00 | 0.00 | 91 | 999.1 |
| 20260507084420 | 18 | 350 | 1.6 | 4.8 | 0.00 | 0.00 | 0.00 | 91 | 999.0 |
| 20260507083915 | 18 | 335 | 1.6 | 6.4 | 0.00 | 0.00 | 0.00 | 91 | 998.8 |
| 20260507083410 | 18 | 5 | 1.6 | 6.4 | 0.00 | 0.00 | 0.00 | 91 | 998.5 |
| 20260507082910 | 18 | 5 | 1.6 | 4.8 | 0.00 | 0.00 | 0.00 | 91 | 998.9 |
| 20260507082408 | 18 | 302 | 1.6 | 6.4 | 0.00 | 0.00 | 0.00 | 91 | 999.2 |
| 20260507081907 | 18 | 16 | 1.6 | 6.4 | 0.00 | 0.00 | 0.00 | 91 | 998.7 |
| 20260507081628 | 18 | 38 | 1.6 | 9.7 | 0.00 | 0.00 | 0.00 | 91 | 998.6 |
| 20260507080903 | 18 | 318 | 1.6 | 9.7 | 0.00 | 0.00 | 0.00 | 91 | 999.0 |
| 20260507080402 | 18 | 50 | 1.6 | 6.4 | 0.00 | 0.00 | 0.00 | 91 | 999.3 |
| 20260507075901 | 18 | 281 | 0.0 | 6.4 | 0.00 | 0.00 | 0.00 | 91 | 999.2 |
| 20260507075402 | 18 | 24 | 0.0 | 4.8 | 0.00 | 0.00 | 0.00 | 91 | 998.9 |
| 20260507074858 | 18 | 24 | 1.6 | 4.8 | 0.00 | 0.00 | 0.00 | 90 | 999.0 |
| 20260507074357 | 18 | 0 | 1.6 | 4.8 | 0.00 | 0.00 | 0.00 | 90 | 999.2 |
| 20260507074341 | 18 | 14 | 1.6 | 4.8 | 0.00 | 0.00 | 0.00 | 90 | 999.2 |
| 20260507073352 | 18 | 341 | 1.6 | 4.8 | 0.00 | 0.00 | 0.00 | 90 | 999.5 |
| 20260507072849 | 18 | 315 | 1.6 | 6.4 | 0.00 | 0.00 | 0.00 | 90 | 999.1 |
| 20260507072349 | 18 | 331 | 1.6 | 6.4 | 0.00 | 0.00 | 0.00 | 90 | 999.2 |
| 20260507071849 | 18 | 5 | 1.6 | 9.7 | 0.00 | 0.00 | 0.00 | 90 | 999.1 |
| 20260507071347 | 18 | 344 | 1.6 | 9.7 | 0.00 | 0.00 | 0.00 | 89 | 999.1 |
| 20260507071332 | 18 | 0 | 1.6 | 4.8 | 0.00 | 0.00 | 0.00 | 89 | 999.3 |
| 20260507070346 | 18 | 323 | 1.6 | 3.2 | 0.00 | 0.00 | 0.00 | 89 | 999.6 |
| 20260507065846 | 18 | 344 | 1.6 | 6.4 | 0.00 | 0.00 | 0.00 | 89 | 999.6 |
| 20260507065346 | 19 | 303 | 1.6 | 6.4 | 0.00 | 0.00 | 0.00 | 89 | 999.7 |
| 20260507064842 | 19 | 16 | 1.6 | 4.8 | 0.00 | 0.00 | 0.00 | 88 | 999.5 |
| 20260507064342 | 19 | 57 | 1.6 | 9.7 | 0.00 | 0.00 | 0.00 | 88 | 999.6 |
| 20260507063842 | 19 | 311 | 1.6 | 9.7 | 0.00 | 0.00 | 0.00 | 88 | 999.5 |
| 20260507063559 | 19 | 10 | 1.6 | 4.8 | 0.00 | 0.00 | 0.00 | 88 | 999.5 |
| 20260507062843 | 19 | 11 | 1.6 | 3.2 | 0.00 | 0.00 | 0.00 | 88 | 999.8 |
| 20260507062342 | 19 | 0 | 1.6 | 4.8 | 0.00 | 0.00 | 0.00 | 88 | 999.2 |
| 20260507061842 | 19 | 0 | 1.6 | 4.8 | 0.00 | 0.00 | 0.00 | 87 | 999.4 |
| 20260507061342 | 19 | 17 | 1.6 | 6.4 | 0.00 | 0.00 | 0.00 | 87 | 999.6 |
| 20260507060843 | 19 | 344 | 1.6 | 6.4 | 0.00 | 0.00 | 0.00 | 87 | 999.6 |
| 20260507060342 | 19 | 0 | 1.6 | 12.9 | 0.00 | 0.00 | 0.00 | 87 | 999.3 |
| 20260507055842 | 19 | 344 | 1.6 | 12.9 | 0.00 | 0.00 | 0.00 | 87 | 999.0 |
| 20260507055342 | 19 | 9 | 1.6 | 3.2 | 0.00 | 0.00 | 0.00 | 87 | 999.1 |
| 20260507054842 | 19 | 9 | 1.6 | 6.4 | 0.00 | 0.00 | 0.00 | 87 | 999.3 |
| 20260507054343 | 19 | 342 | 1.6 | 6.4 | 0.00 | 0.00 | 0.00 | 87 | 999.5 |
| 20260507053843 | 19 | 20 | 1.6 | 4.8 | 0.00 | 0.00 | 0.00 | 87 | 999.3 |
| 20260507053343 | 19 | 9 | 1.6 | 4.8 | 0.00 | 0.00 | 0.00 | 87 | 999.4 |
| 20260507052842 | 19 | 337 | 1.6 | 4.8 | 0.00 | 0.00 | 0.00 | 87 | 999.4 |
| 20260507052342 | 19 | 17 | 1.6 | 9.7 | 0.00 | 0.00 | 0.00 | 86 | 999.2 |
| 20260507052104 | 19 | 26 | 1.6 | 9.7 | 0.00 | 0.00 | 0.00 | 86 | 999.3 |
| 20260507051344 | 19 | 304 | 1.6 | 8.0 | 0.00 | 0.00 | 0.00 | 87 | 999.2 |
| 20260507050840 | 19 | 23 | 1.6 | 6.4 | 0.00 | 0.00 | 0.00 | 86 | 999.2 |
| 20260507050829 | 19 | 287 | 1.6 | 6.4 | 0.00 | 0.00 | 0.00 | 86 | 999.2 |
| 20260507045604 | 20 | 15 | 1.6 | 6.4 | 0.00 | 0.00 | 0.00 | 86 | 999.1 |
| 20260507044839 | 20 | 300 | 1.6 | 6.4 | 0.00 | 0.00 | 0.00 | 86 | 999.1 |
| 20260507044340 | 20 | 309 | 1.6 | 6.4 | 0.00 | 0.00 | 0.00 | 86 | 999.1 |
| 20260507043839 | 20 | 37 | 1.6 | 4.8 | 0.00 | 0.00 | 0.00 | 85 | 999.1 |
| 20260507043338 | 20 | 320 | 1.6 | 4.8 | 0.00 | 0.00 | 0.00 | 85 | 999.1 |
| 20260507042839 | 20 | 340 | 1.6 | 6.4 | 0.00 | 0.00 | 0.00 | 86 | 999.0 |
| 20260507042339 | 20 | 327 | 1.6 | 6.4 | 0.00 | 0.00 | 0.00 | 86 | 999.0 |
| 20260507041838 | 20 | 9 | 1.6 | 6.4 | 0.00 | 0.00 | 0.00 | 86 | 999.0 |
| 20260507041339 | 20 | 345 | 1.6 | 11.3 | 0.00 | 0.00 | 0.00 | 86 | 998.9 |
| 20260507040840 | 20 | 32 | 1.6 | 11.3 | 0.00 | 0.00 | 0.00 | 86 | 999.0 |
| 20260507040339 | 20 | 9 | 1.6 | 4.8 | 0.00 | 0.00 | 0.00 | 86 | 999.0 |
| 20260507040316 | 20 | 18 | 1.6 | 3.2 | 0.00 | 0.00 | 0.00 | 86 | 998.9 |
| 20260507035338 | 20 | 327 | 1.6 | 4.8 | 0.00 | 0.00 | 0.00 | 85 | 999.1 |
| 20260507034839 | 20 | 12 | 1.6 | 6.4 | 0.00 | 0.00 | 0.00 | 86 | 999.1 |
| 20260507034554 | 20 | 344 | 1.6 | 6.4 | 0.00 | 0.00 | 0.00 | 85 | 999.1 |
| 20260507033839 | 20 | 295 | 1.6 | 6.4 | 0.00 | 0.00 | 0.00 | 85 | 999.1 |